Location: Favalello
(42.2939°N, 9.2706°E)
Time: 08:54:09
(UTC+00:00)

ATLAS 3B R/B - Pass Details

Date: 06 December 2019
Orbit: 1027 x 1168 km, 63.8° (Epoch: 19 January)

Event Time Altitude Azimuth Distance (km) Brightness Sun altitude
Rises 17:20:50 0° 320° (NW) 3,804 5.9 -16.2°
Reaches altitude 10° 17:23:31 10° 315° (NW) 2,860 5.3 -16.6°
Maximum altitude 17:29:54 47° 244° (WSW) 1,383 3.7 -17.8°
Drops below altitude 10° 17:36:27 10° 173° (S) 2,931 5.1 -18.9°
Sets 17:39:15 0° 167° (SSE) 3,906 5.7 -19.5°
